| time (UTC) | temp F | wind direction | speed MPH | gust MPH | rain 1hr in | rain 24hr in | rain mn in | humidity % | barometer mb |
| 20260502224021 | 50 | 274 | 2.0 | 6.0 | 0.00 | 0.05 | 0.05 | 47 | 996.5 |
| 20260502223522 | 50 | 309 | 2.0 | 6.0 | 0.00 | 0.05 | 0.05 | 44 | 996.5 |
| 20260502223028 | 50 | 269 | 2.0 | 6.0 | 0.00 | 0.05 | 0.05 | 46 | 996.5 |
| 20260502222533 | 51 | 317 | 1.0 | 6.0 | 0.00 | 0.05 | 0.05 | 45 | 996.4 |
| 20260502222023 | 51 | 338 | 1.0 | 4.0 | 0.00 | 0.05 | 0.05 | 46 | 996.3 |
| 20260502221526 | 51 | 265 | 1.0 | 5.0 | 0.00 | 0.05 | 0.05 | 48 | 996.2 |
| 20260502221027 | 51 | 250 | 2.0 | 5.0 | 0.00 | 0.05 | 0.05 | 49 | 996.2 |
| 20260502220540 | 51 | 269 | 1.0 | 3.0 | 0.00 | 0.05 | 0.05 | 54 | 996.1 |
| 20260502220026 | 51 | 148 | 1.0 | 3.0 | 0.00 | 0.05 | 0.05 | 61 | 996.1 |
| 20260502215533 | 51 | 52 | 1.0 | 2.0 | 0.00 | 0.05 | 0.05 | 61 | 996.0 |
| 20260502215022 | 51 | 311 | 0.0 | 2.0 | 0.00 | 0.05 | 0.05 | 61 | 996.0 |
| 20260502214523 | 52 | 39 | 1.0 | 4.0 | 0.00 | 0.05 | 0.05 | 60 | 995.9 |
| 20260502214034 | 52 | 333 | 1.0 | 4.0 | 0.00 | 0.05 | 0.05 | 60 | 995.8 |
| 20260502213526 | 52 | 213 | 1.0 | 4.0 | 0.00 | 0.05 | 0.05 | 60 | 995.8 |
| 20260502213022 | 52 | 359 | 1.0 | 4.0 | 0.00 | 0.05 | 0.05 | 60 | 995.8 |
| 20260502212533 | 52 | 294 | 0.0 | 6.0 | 0.00 | 0.05 | 0.05 | 61 | 995.9 |
| 20260502212024 | 53 | 79 | 1.0 | 6.0 | 0.00 | 0.05 | 0.05 | 59 | 995.8 |
| 20260502211524 | 53 | 236 | 1.0 | 6.0 | 0.00 | 0.05 | 0.05 | 57 | 995.8 |
| 20260502211034 | 54 | 325 | 1.0 | 8.0 | 0.00 | 0.05 | 0.05 | 52 | 995.8 |
| 20260502210541 | 55 | 302 | 1.0 | 8.0 | 0.00 | 0.05 | 0.05 | 42 | 995.8 |
| 20260502210019 | 56 | 86 | 0.0 | 3.0 | 0.00 | 0.05 | 0.05 | 44 | 995.7 |
| 20260502205529 | 57 | 289 | 1.0 | 6.0 | 0.00 | 0.05 | 0.05 | 40 | 995.7 |
| 20260502205039 | 57 | 48 | 1.0 | 9.0 | 0.00 | 0.05 | 0.05 | 42 | 995.6 |
| 20260502204520 | 57 | 240 | 3.0 | 9.0 | 0.00 | 0.05 | 0.05 | 40 | 995.5 |
| 20260502204030 | 57 | 287 | 2.0 | 9.0 | 0.00 | 0.05 | 0.05 | 43 | 995.4 |
| 20260502203541 | 57 | 284 | 1.0 | 7.0 | 0.00 | 0.05 | 0.05 | 40 | 995.4 |
| 20260502203020 | 57 | 144 | 1.0 | 5.0 | 0.00 | 0.05 | 0.05 | 45 | 995.4 |
| 20260502202531 | 56 | 104 | 2.0 | 6.0 | 0.00 | 0.05 | 0.05 | 45 | 995.4 |
| 20260502202032 | 56 | 290 | 3.0 | 8.0 | 0.00 | 0.05 | 0.05 | 41 | 995.5 |
| 20260502201521 | 55 | 240 | 2.0 | 5.0 | 0.00 | 0.05 | 0.05 | 51 | 995.5 |
| 20260502201032 | 55 | 240 | 1.0 | 3.0 | 0.00 | 0.05 | 0.05 | 47 | 995.6 |
| 20260502200535 | 55 | 248 | 1.0 | 3.0 | 0.00 | 0.05 | 0.05 | 45 | 995.6 |
| 20260502200022 | 55 | 229 | 1.0 | 5.0 | 0.00 | 0.05 | 0.05 | 47 | 995.6 |
| 20260502195522 | 56 | 206 | 1.0 | 6.0 | 0.00 | 0.05 | 0.05 | 47 | 995.7 |
| 20260502195033 | 56 | 286 | 1.0 | 6.0 | 0.00 | 0.05 | 0.05 | 48 | 995.7 |
| 20260502194523 | 56 | 303 | 1.0 | 6.0 | 0.00 | 0.05 | 0.05 | 48 | 995.6 |
| 20260502194020 | 56 | 243 | 2.0 | 6.0 | 0.00 | 0.05 | 0.05 | 47 | 995.8 |
| 20260502193532 | 56 | 226 | 0.0 | 3.0 | 0.00 | 0.05 | 0.05 | 51 | 995.8 |
| 20260502193021 | 55 | 275 | 0.0 | 5.0 | 0.00 | 0.05 | 0.05 | 52 | 995.9 |
| 20260502192547 | 55 | 219 | 2.0 | 6.0 | 0.00 | 0.05 | 0.05 | 48 | 995.9 |
| 20260502192027 | 55 | 234 | 1.0 | 5.0 | 0.00 | 0.05 | 0.05 | 54 | 996.0 |
| 20260502191537 | 55 | 282 | 2.0 | 7.0 | 0.00 | 0.05 | 0.05 | 49 | 995.9 |
| 20260502191049 | 55 | 263 | 1.0 | 8.0 | 0.00 | 0.05 | 0.05 | 49 | 996.0 |
| 20260502190531 | 57 | 191 | 2.0 | 8.0 | 0.00 | 0.05 | 0.05 | 48 | 996.0 |
| 20260502190040 | 57 | 244 | 1.0 | 5.0 | 0.00 | 0.05 | 0.05 | 47 | 995.9 |
| 20260502185520 | 57 | 262 | 1.0 | 5.0 | 0.00 | 0.05 | 0.05 | 48 | 995.9 |
| 20260502185030 | 57 | 257 | 2.0 | 5.0 | 0.00 | 0.05 | 0.05 | 48 | 995.9 |
| 20260502184541 | 57 | 270 | 1.0 | 7.0 | 0.00 | 0.05 | 0.05 | 50 | 995.9 |
| 20260502184021 | 57 | 273 | 2.0 | 7.0 | 0.00 | 0.05 | 0.05 | 49 | 995.9 |
| 20260502183530 | 56 | 264 | 0.0 | 6.0 | 0.00 | 0.05 | 0.05 | 51 | 996.0 |
| 20260502183039 | 56 | 202 | 2.0 | 6.0 | 0.00 | 0.05 | 0.05 | 50 | 996.1 |
| 20260502182548 | 56 | 231 | 3.0 | 6.0 | 0.00 | 0.05 | 0.05 | 51 | 996.1 |
| 20260502182029 | 55 | 243 | 2.0 | 6.0 | 0.00 | 0.05 | 0.05 | 51 | 996.1 |
| 20260502181540 | 55 | 298 | 2.0 | 5.0 | 0.00 | 0.05 | 0.05 | 54 | 996.1 |
| 20260502181051 | 55 | 205 | 1.0 | 5.0 | 0.00 | 0.05 | 0.05 | 53 | 996.2 |
| 20260502180531 | 55 | 233 | 2.0 | 5.0 | 0.00 | 0.05 | 0.05 | 53 | 996.2 |
| 20260502164038 | 55 | 270 | 1.0 | 2.0 | 0.00 | 0.05 | 0.05 | 70 | 996.5 |
| 20260502163549 | 55 | 51 | 0.0 | 2.0 | 0.00 | 0.05 | 0.05 | 75 | 996.5 |
| 20260502163027 | 53 | 283 | 0.0 | 1.0 | 0.00 | 0.05 | 0.05 | 76 | 996.7 |
| 20260502162534 | 52 | 120 | 0.0 | 2.0 | 0.00 | 0.05 | 0.05 | 74 | 996.8 |
| 20260502162041 | 51 | 82 | 0.0 | 3.0 | 0.00 | 0.05 | 0.05 | 75 | 996.8 |
| 20260502161522 | 51 | 249 | 0.0 | 3.0 | 0.00 | 0.05 | 0.05 | 74 | 996.9 |
| 20260502161033 | 51 | 263 | 0.0 | 4.0 | 0.00 | 0.05 | 0.05 | 73 | 996.9 |
| 20260502160546 | 51 | 256 | 2.0 | 4.0 | 0.00 | 0.05 | 0.05 | 74 | 996.9 |
| 20260502152038 | 48 | 264 | 0.0 | 2.0 | 0.00 | 0.05 | 0.05 | 81 | 997.2 |
| 20260502151548 | 48 | 265 | 1.0 | 2.0 | 0.00 | 0.05 | 0.05 | 80 | 997.2 |
| 20260502151029 | 49 | 255 | 1.0 | 2.0 | 0.00 | 0.05 | 0.05 | 81 | 997.2 |
| 20260502150541 | 49 | 279 | 0.0 | 3.0 | 0.00 | 0.05 | 0.05 | 80 | 997.2 |
| 20260502130522 | 47 | 283 | 0.0 | 2.0 | 0.00 | 0.05 | 0.05 | 87 | 997.3 |
| 20260502123522 | 48 | 309 | 0.0 | 3.0 | 0.00 | 0.05 | 0.05 | 91 | 997.1 |
| 20260502123030 | 47 | 65 | 0.0 | 2.0 | 0.00 | 0.05 | 0.05 | 93 | 997.1 |
| 20260502122532 | 47 | 65 | 0.0 | 2.0 | 0.00 | 0.05 | 0.05 | 93 | 997.1 |
| 20260502122021 | 47 | 268 | 0.0 | 2.0 | 0.00 | 0.05 | 0.05 | 94 | 997.2 |
| 20260502121522 | 47 | 248 | 0.0 | 2.0 | 0.00 | 0.05 | 0.05 | 94 | 997.3 |
| 20260502121032 | 46 | 266 | 0.0 | 0.0 | 0.00 | 0.05 | 0.05 | 95 | 997.3 |
| 20260502120524 | 46 | 266 | 0.0 | 1.0 | 0.00 | 0.05 | 0.05 | 96 | 997.2 |
| 20260502115525 | 45 | 266 | 0.0 | 1.0 | 0.00 | 0.05 | 0.05 | 96 | 997.2 |
| 20260502115035 | 45 | 267 | 0.0 | 2.0 | 0.00 | 0.05 | 0.05 | 96 | 997.2 |
| 20260502114025 | 45 | 124 | 0.0 | 0.0 | 0.00 | 0.05 | 0.05 | 96 | 997.0 |
| 20260502113536 | 45 | 106 | 0.0 | 0.0 | 0.00 | 0.05 | 0.05 | 96 | 997.0 |
| 20260502113037 | 45 | 106 | 0.0 | 0.0 | 0.00 | 0.05 | 0.05 | 97 | 997.0 |
| 20260502112525 | 44 | 106 | 0.0 | 0.0 | 0.00 | 0.05 | 0.05 | 97 | 997.0 |
| 20260502112036 | 44 | 106 | 0.0 | 0.0 | 0.00 | 0.05 | 0.05 | 97 | 997.0 |
| 20260502111537 | 44 | 106 | 0.0 | 1.0 | 0.00 | 0.05 | 0.05 | 97 | 997.0 |
| 20260502111026 | 44 | 104 | 0.0 | 1.0 | 0.00 | 0.05 | 0.05 | 97 | 997.0 |
| 20260502110537 | 44 | 13 | 0.0 | 0.0 | 0.00 | 0.05 | 0.05 | 97 | 997.0 |
| 20260502110036 | 44 | 44 | 0.0 | 0.0 | 0.00 | 0.05 | 0.05 | 97 | 996.8 |
| 20260502105525 | 44 | 257 | 0.0 | 0.0 | 0.00 | 0.05 | 0.05 | 97 | 996.8 |
| 20260502105026 | 44 | 259 | 0.0 | 0.0 | 0.01 | 0.05 | 0.05 | 97 | 996.8 |
| 20260502104537 | 44 | 259 | 0.0 | 0.0 | 0.01 | 0.05 | 0.05 | 97 | 996.7 |
| 20260502104027 | 44 | 259 | 0.0 | 0.0 | 0.01 | 0.05 | 0.05 | 97 | 996.7 |
| 20260502103529 | 44 | 259 | 0.0 | 0.0 | 0.01 | 0.05 | 0.05 | 97 | 996.7 |
| 20260502103034 | 44 | 267 | 0.0 | 0.0 | 0.01 | 0.05 | 0.05 | 97 | 996.6 |
| 20260502102544 | 43 | 267 | 0.0 | 0.0 | 0.01 | 0.05 | 0.05 | 97 | 996.5 |
| 20260502102024 | 43 | 267 | 0.0 | 0.0 | 0.01 | 0.05 | 0.05 | 97 | 996.5 |
| 20260502101535 | 43 | 267 | 0.0 | 0.0 | 0.01 | 0.05 | 0.05 | 97 | 996.5 |
| 20260502101042 | 44 | 266 | 0.0 | 0.0 | 0.01 | 0.05 | 0.05 | 97 | 996.5 |
| 20260502100524 | 44 | 266 | 0.0 | 0.0 | 0.01 | 0.05 | 0.05 | 97 | 996.4 |
| 20260502091529 | 44 | 310 | 0.0 | 0.0 | 0.00 | 0.04 | 0.04 | 96 | 996.2 |
| 20260502091030 | 44 | 310 | 0.0 | 0.0 | 0.00 | 0.04 | 0.04 | 96 | 996.2 |
| 20260502090541 | 44 | 310 | 0.0 | 0.0 | 0.00 | 0.04 | 0.04 | 96 | 996.1 |
| 20260502071027 | 44 | 265 | 0.0 | 0.0 | 0.00 | 0.04 | 0.04 | 96 | 996.3 |
| 20260502070523 | 44 | 265 | 0.0 | 0.0 | 0.00 | 0.04 | 0.04 | 96 | 996.2 |
| 20260502070033 | 44 | 265 | 0.0 | 0.0 | 0.00 | 0.04 | 0.04 | 96 | 996.3 |
| 20260502065522 | 44 | 265 | 0.0 | 0.0 | 0.00 | 0.04 | 0.04 | 96 | 996.3 |
| 20260502065023 | 44 | 265 | 0.0 | 0.0 | 0.00 | 0.04 | 0.04 | 95 | 996.2 |
| 20260502064530 | 44 | 265 | 0.0 | 0.0 | 0.00 | 0.04 | 0.04 | 95 | 996.0 |
| 20260502064040 | 44 | 265 | 0.0 | 0.0 | 0.00 | 0.04 | 0.04 | 95 | 996.1 |
| 20260502063522 | 44 | 265 | 0.0 | 0.0 | 0.00 | 0.04 | 0.04 | 95 | 996.2 |
| 20260502063031 | 44 | 265 | 0.0 | 0.0 | 0.00 | 0.04 | 0.04 | 95 | 996.2 |
| 20260502062541 | 44 | 265 | 0.0 | 0.0 | 0.00 | 0.04 | 0.04 | 95 | 996.3 |
| 20260502062023 | 44 | 265 | 0.0 | 0.0 | 0.02 | 0.04 | 0.04 | 95 | 996.3 |
| 20260502061533 | 44 | 265 | 0.0 | 0.0 | 0.02 | 0.04 | 0.04 | 95 | 996.4 |
| 20260502061043 | 44 | 265 | 0.0 | 0.0 | 0.03 | 0.04 | 0.04 | 94 | 996.4 |
| 20260502060522 | 44 | 265 | 0.0 | 0.0 | 0.03 | 0.04 | 0.04 | 94 | 996.5 |
| 20260502060031 | 44 | 265 | 0.0 | 0.0 | 0.03 | 0.04 | 0.04 | 94 | 996.4 |
| 20260502055541 | 44 | 265 | 0.0 | 0.0 | 0.03 | 0.04 | 0.04 | 94 | 996.5 |
| 20260502055022 | 44 | 265 | 0.0 | 0.0 | 0.03 | 0.04 | 0.04 | 93 | 996.6 |
| 20260502054527 | 44 | 265 | 0.0 | 0.0 | 0.03 | 0.04 | 0.04 | 93 | 996.5 |
| 20260502054029 | 44 | 265 | 0.0 | 0.0 | 0.03 | 0.04 | 0.04 | 93 | 996.7 |
| 20260502053540 | 44 | 265 | 0.0 | 0.0 | 0.03 | 0.04 | 0.04 | 93 | 996.8 |
| 20260502053030 | 44 | 265 | 0.0 | 0.0 | 0.03 | 0.04 | 0.04 | 92 | 996.8 |
| 20260502052532 | 44 | 265 | 0.0 | 0.0 | 0.02 | 0.03 | 0.03 | 92 | 996.7 |
| 20260502052021 | 45 | 265 | 0.0 | 0.0 | 0.01 | 0.02 | 0.02 | 91 | 996.7 |
| 20260502051522 | 45 | 265 | 0.0 | 0.0 | 0.00 | 0.01 | 0.01 | 91 | 996.7 |
| 20260502051033 | 45 | 265 | 0.0 | 0.0 | 0.00 | 0.01 | 0.01 | 91 | 996.7 |
| 20260502050544 | 45 | 265 | 0.0 | 1.0 | 0.01 | 0.01 | 0.01 | 90 | 996.8 |
| 20260502050049 | 45 | 265 | 0.0 | 1.0 | 0.01 | 0.01 | 0.01 | 90 | 996.7 |
| 20260502045558 | 45 | 110 | 0.0 | 1.0 | 0.01 | 0.01 | 0.01 | 91 | 996.6 |
| 20260502045045 | 45 | 110 | 0.0 | 0.0 | 0.01 | 0.01 | 0.01 | 91 | 996.5 |
| 20260502044549 | 45 | 110 | 0.0 | 0.0 | 0.01 | 0.01 | 0.01 | 90 | 996.6 |
| 20260502044057 | 45 | 110 | 0.0 | 0.0 | 0.01 | 0.01 | 0.01 | 89 | 996.7 |
| 20260502043548 | 45 | 110 | 0.0 | 0.0 | 0.01 | 0.01 | 0.01 | 88 | 996.7 |
| 20260502043056 | 46 | 110 | 0.0 | 0.0 | 0.01 | 0.01 | 0.01 | 88 | 996.6 |
| 20260502042543 | 46 | 110 | 0.0 | 1.0 | 0.01 | 0.01 | 0.01 | 86 | 996.8 |
| 20260502042052 | 46 | 110 | 0.0 | 1.0 | 0.01 | 0.01 | 0.01 | 85 | 997.0 |
| 20260502041547 | 47 | 111 | 0.0 | 0.0 | 0.01 | 0.01 | 0.01 | 84 | 996.8 |
| 20260502041055 | 47 | 111 | 0.0 | 0.0 | 0.01 | 0.01 | 0.01 | 82 | 996.9 |
| 20260502040546 | 48 | 111 | 0.0 | 1.0 | 0.00 | 0.00 | 0.00 | 80 | 996.8 |
| 20260502040020 | 48 | 111 | 0.0 | 2.0 | 0.00 | 0.00 | 0.00 | 79 | 996.8 |
| 20260502035529 | 48 | 236 | 1.0 | 2.0 | 0.00 | 0.00 | 0.00 | 75 | 996.8 |
| 20260502035040 | 49 | 236 | 0.0 | 1.0 | 0.00 | 0.00 | 0.00 | 73 | 996.7 |
| 20260502034520 | 49 | 236 | 0.0 | 0.0 | 0.00 | 0.00 | 0.00 | 71 | 996.7 |
| 20260502034028 | 49 | 236 | 0.0 | 1.0 | 0.00 | 0.00 | 0.00 | 67 | 996.6 |
| 20260502033539 | 49 | 236 | 0.0 | 1.0 | 0.00 | 0.00 | 0.00 | 67 | 996.5 |
| 20260502033038 | 49 | 236 | 0.0 | 0.0 | 0.00 | 0.00 | 0.00 | 67 | 996.5 |
| 20260502032527 | 50 | 236 | 0.0 | 0.0 | 0.00 | 0.00 | 0.00 | 66 | 996.4 |
| 20260502032038 | 50 | 236 | 0.0 | 0.0 | 0.00 | 0.00 | 0.00 | 65 | 996.4 |
| 20260502031538 | 50 | 236 | 0.0 | 1.0 | 0.00 | 0.00 | 0.00 | 62 | 996.3 |
| 20260502031027 | 50 | 236 | 0.0 | 1.0 | 0.00 | 0.00 | 0.00 | 62 | 996.3 |
| 20260502030529 | 50 | 236 | 0.0 | 0.0 | 0.00 | 0.00 | 0.00 | 60 | 996.3 |
| 20260502030038 | 50 | 236 | 0.0 | 0.0 | 0.00 | 0.00 | 0.00 | 60 | 996.3 |
| 20260502025546 | 50 | 236 | 0.0 | 0.0 | 0.00 | 0.00 | 0.00 | 60 | 996.3 |
| 20260502025055 | 50 | 236 | 0.0 | 0.0 | 0.00 | 0.00 | 0.00 | 59 | 996.3 |
| 20260502024600 | 50 | 236 | 0.0 | 0.0 | 0.00 | 0.00 | 0.00 | 58 | 996.4 |
| 20260502024047 | 51 | 236 | 0.0 | 0.0 | 0.00 | 0.00 | 0.00 | 58 | 996.4 |
| 20260502023556 | 51 | 236 | 0.0 | 0.0 | 0.00 | 0.00 | 0.00 | 57 | 996.4 |
| 20260502023042 | 51 | 236 | 0.0 | 0.0 | 0.00 | 0.00 | 0.00 | 56 | 996.3 |
| 20260502022547 | 51 | 250 | 0.0 | 0.0 | 0.00 | 0.00 | 0.00 | 55 | 996.3 |
| 20260502022056 | 51 | 250 | 0.0 | 0.0 | 0.00 | 0.00 | 0.00 | 54 | 996.4 |
| 20260502021544 | 51 | 250 | 0.0 | 0.0 | 0.00 | 0.00 | 0.00 | 54 | 996.4 |
| 20260502021051 | 51 | 250 | 0.0 | 0.0 | 0.00 | 0.00 | 0.00 | 54 | 996.4 |
| 20260502020600 | 51 | 250 | 0.0 | 0.0 | 0.00 | 0.00 | 0.00 | 54 | 996.4 |
| 20260502020045 | 51 | 250 | 0.0 | 0.0 | 0.00 | 0.00 | 0.00 | 54 | 996.4 |
| 20260502015522 | 51 | 250 | 0.0 | 0.0 | 0.00 | 0.00 | 0.00 | 54 | 996.3 |
| 20260502015033 | 51 | 250 | 0.0 | 0.0 | 0.00 | 0.00 | 0.00 | 53 | 996.3 |
| 20260502014521 | 51 | 250 | 0.0 | 0.0 | 0.00 | 0.00 | 0.00 | 51 | 996.3 |
| 20260502014022 | 51 | 250 | 0.0 | 1.0 | 0.00 | 0.00 | 0.00 | 51 | 996.2 |
| 20260502013534 | 51 | 250 | 0.0 | 1.0 | 0.00 | 0.00 | 0.00 | 51 | 996.2 |
| 20260502013021 | 51 | 250 | 0.0 | 0.0 | 0.00 | 0.00 | 0.00 | 52 | 996.1 |
| 20260502012522 | 51 | 250 | 0.0 | 1.0 | 0.00 | 0.00 | 0.00 | 51 | 996.1 |
| 20260502011546 | 52 | 250 | 0.0 | 1.0 | 0.00 | 0.00 | 0.00 | 49 | 996.0 |
| 20260502011027 | 53 | 250 | 0.0 | 1.0 | 0.00 | 0.00 | 0.00 | 47 | 995.9 |
| 20260502010536 | 53 | 250 | 0.0 | 1.0 | 0.00 | 0.00 | 0.00 | 47 | 996.0 |
| 20260502010044 | 53 | 250 | 0.0 | 1.0 | 0.00 | 0.00 | 0.00 | 46 | 996.0 |
| 20260502005524 | 53 | 257 | 0.0 | 1.0 | 0.00 | 0.00 | 0.00 | 47 | 996.0 |
| 20260502005033 | 54 | 257 | 0.0 | 2.0 | 0.00 | 0.00 | 0.00 | 46 | 995.9 |
| 20260502004530 | 54 | 245 | 0.0 | 2.0 | 0.00 | 0.00 | 0.00 | 45 | 995.9 |
| 20260502004040 | 54 | 287 | 0.0 | 2.0 | 0.00 | 0.00 | 0.00 | 45 | 995.9 |
| 20260502003531 | 54 | 208 | 1.0 | 3.0 | 0.00 | 0.00 | 0.00 | 45 | 995.8 |
| 20260502003032 | 54 | 233 | 0.0 | 5.0 | 0.00 | 0.00 | 0.00 | 45 | 995.9 |
| 20260502002521 | 54 | 266 | 0.0 | 2.0 | 0.00 | 0.00 | 0.00 | 46 | 995.8 |
| 20260502002029 | 55 | 288 | 1.0 | 2.0 | 0.00 | 0.00 | 0.00 | 44 | 995.8 |
| 20260502001530 | 55 | 280 | 1.0 | 2.0 | 0.00 | 0.00 | 0.00 | 46 | 995.8 |
| 20260502001020 | 55 | 290 | 1.0 | 2.0 | 0.00 | 0.00 | 0.00 | 43 | 995.7 |
| 20260502000523 | 55 | 266 | 0.0 | 2.0 | 0.00 | 0.00 | 0.00 | 43 | 995.6 |
| 20260502000032 | 55 | 217 | 0.0 | 4.0 | 0.00 | 0.00 | 0.00 | 43 | 995.5 |
| 20260501235521 | 55 | 217 | 2.0 | 4.0 | 0.00 | 0.00 | 0.00 | 42 | 995.4 |
| 20260501235048 | 56 | 232 | 0.0 | 3.0 | 0.00 | 0.00 | 0.00 | 42 | 995.4 |
| 20260501234554 | 56 | 231 | 1.0 | 4.0 | 0.00 | 0.00 | 0.00 | 42 | 995.4 |
| 20260501234041 | 56 | 211 | 1.0 | 4.0 | 0.00 | 0.00 | 0.00 | 41 | 995.3 |
| 20260501233547 | 56 | 242 | 2.0 | 5.0 | 0.00 | 0.00 | 0.00 | 41 | 995.2 |
| 20260501233055 | 56 | 191 | 2.0 | 5.0 | 0.00 | 0.00 | 0.00 | 42 | 995.1 |
| 20260501232542 | 56 | 250 | 0.0 | 8.0 | 0.00 | 0.00 | 0.00 | 41 | 995.1 |
| 20260501232050 | 56 | 123 | 2.0 | 8.0 | 0.00 | 0.00 | 0.00 | 41 | 995.1 |
| 20260501231558 | 56 | 160 | 0.0 | 3.0 | 0.00 | 0.00 | 0.00 | 41 | 995.0 |
| 20260501231108 | 56 | 52 | 0.0 | 2.0 | 0.00 | 0.00 | 0.00 | 43 | 994.9 |
| 20260501230558 | 56 | 273 | 0.0 | 1.0 | 0.00 | 0.00 | 0.00 | 43 | 994.8 |
| 20260501230107 | 57 | 273 | 0.0 | 1.0 | 0.00 | 0.00 | 0.00 | 41 | 994.7 |
| 20260501225541 | 57 | 273 | 0.0 | 1.0 | 0.00 | 0.00 | 0.00 | 40 | 994.7 |
| 20260501225102 | 57 | 273 | 0.0 | 0.0 | 0.00 | 0.00 | 0.00 | 44 | 994.7 |
| 20260501224521 | 57 | 273 | 0.0 | 0.0 | 0.00 | 0.00 | 0.00 | 41 | 994.6 |